• In Netherlands
  • List of Countries
  • For 7 days
  • Water Temperature
  • Satellite Maps
  • Weather Map
  • Weather Widgets
  • user-avatar
    Login

    Hourly Weather Innsbruck

    Today, 22 April, Sunday

    Time Temperature Precipitation Wind Pressure Humidity
    00:00 +5°C° 0.3 mm 1 mps 597 mmHg 87%
    01:00 +5°C° 0.3 mm 1 mps 597 mmHg 87%
    02:00 +4°C° 0.1 mm 1 mps 597 mmHg 86%
    03:00 +4°C° 0.1 mm 1 mps 597 mmHg 86%
    04:00 +4°C° 0.1 mm 1 mps 597 mmHg 85%
    05:00 +5°C° 0 mm 1 mps 597 mmHg 82%
    06:00 +6°C° 0 mm 1 mps 598 mmHg 79%
    07:00 +8°C° 0 mm 1 mps 598 mmHg 77%
    08:00 +10°C° 0 mm 1 mps 599 mmHg 68%
    09:00 +12°C° 0 mm 1 mps 600 mmHg 59%
    10:00 +14°C° 0 mm 1 mps 601 mmHg 51%
    11:00 +15°C° 0.1 mm 1 mps 601 mmHg 48%
    12:00 +15°C° 0.1 mm 1 mps 601 mmHg 45%
    13:00 +16°C° 0.1 mm 1 mps 601 mmHg 42%
    14:00 +15°C° 0.3 mm 1 mps 601 mmHg 44%
    15:00 +15°C° 0.3 mm 1 mps 600 mmHg 46%
    16:00 +14°C° 0.3 mm 1 mps 600 mmHg 49%
    17:00 +12°C° 0.5 mm 1 mps 599 mmHg 59%
    18:00 +10°C° 0.5 mm 1 mps 598 mmHg 69%
    19:00 +9°C° 0.5 mm 1 mps 597 mmHg 79%
    20:00 +8°C° 0.6 mm 1 mps 597 mmHg 81%
    21:00 +7°C° 0.6 mm 1 mps 597 mmHg 84%
    22:00 +6°C° 0.6 mm 1 mps 598 mmHg 86%
    23:00 +6°C° 0.2 mm 1 mps 597 mmHg 87%

    Tomorrow, 23 April, Monday

    Time Temperature Precipitation Wind Pressure Humidity
    00:00 +6°C° 0.2 mm 1 mps 597 mmHg 87%
    01:00 +6°C° 0.2 mm 1 mps 597 mmHg 87%
    02:00 +5°C° 0.1 mm 1 mps 597 mmHg 87%
    03:00 +5°C° 0.1 mm 1 mps 597 mmHg 86%
    04:00 +5°C° 0.1 mm 1 mps 597 mmHg 86%
    05:00 +6°C° 0.1 mm 1 mps 597 mmHg 84%
    06:00 +7°C° 0.1 mm 1 mps 598 mmHg 82%
    07:00 +8°C° 0.1 mm 1 mps 598 mmHg 80%
    08:00 +10°C° 0.1 mm 1 mps 599 mmHg 69%
    09:00 +12°C° 0.1 mm 1 mps 600 mmHg 59%
    10:00 +14°C° 0.1 mm 1 mps 601 mmHg 49%
    11:00 +14°C° 0.2 mm 1 mps 601 mmHg 47%
    12:00 +14°C° 0.2 mm 2 mps 601 mmHg 46%
    13:00 +15°C° 0.2 mm 2 mps 601 mmHg 45%
    14:00 +13°C° 1 mm 2 mps 600 mmHg 55%
    15:00 +12°C° 1 mm 2 mps 599 mmHg 65%
    16:00 +9°C° 1 mm 2 mps 599 mmHg 75%
    17:00 +8°C° 1.3 mm 2 mps 598 mmHg 80%
    18:00 +7°C° 1.3 mm 2 mps 598 mmHg 85%
    19:00 +6°C° 1.3 mm 2 mps 598 mmHg 90%
    20:00 +7°C° 0.2 mm 1 mps 598 mmHg 91%
    21:00 +6°C° 0.2 mm 1 mps 598 mmHg 92%
    22:00 +6°C° 0.2 mm 1 mps 598 mmHg 93%
    23:00 +5°C° 0 mm 1 mps 598 mmHg 93%

    Day after tomorrow, 24 April, Tuesday

    Time Temperature Precipitation Wind Pressure Humidity
    00:00 +5°C° 0 mm 1 mps 597 mmHg 93%
    01:00 +4°C° 0 mm 1 mps 597 mmHg 93%
    02:00 +3°C° 0 mm 1 mps 597 mmHg 93%
    03:00 +3°C° 0 mm 1 mps 597 mmHg 93%
    04:00 +2°C° 0 mm 1 mps 596 mmHg 93%
    05:00 +3°C° 0 mm 1 mps 597 mmHg 91%
    06:00 +4°C° 0 mm 1 mps 598 mmHg 88%
    07:00 +5°C° 0 mm 1 mps 598 mmHg 85%
    08:00 +8°C° 0 mm 1 mps 599 mmHg 73%
    09:00 +9°C° 0 mm 0 mps 600 mmHg 61%
    10:00 +12°C° 0 mm 0 mps 601 mmHg 49%
    11:00 +14°C° 0 mm 1 mps 602 mmHg 44%
    12:00 +15°C° 0 mm 1 mps 602 mmHg 39%
    13:00 +15°C° 0 mm 1 mps 602 mmHg 34%
    14:00 +15°C° 0 mm 1 mps 601 mmHg 35%
    15:00 +15°C° 0 mm 1 mps 601 mmHg 36%
    16:00 +15°C° 0 mm 1 mps 601 mmHg 37%
    17:00 +13°C° 0 mm 1 mps 600 mmHg 49%
    18:00 +11°C° 0 mm 1 mps 599 mmHg 62%
    19:00 +7°C° 0 mm 0 mps 598 mmHg 74%
    20:00 +7°C° 0 mm 1 mps 598 mmHg 78%
    21:00 +6°C° 0 mm 1 mps 597 mmHg 82%
    22:00 +5°C° 0 mm 1 mps 597 mmHg 86%
    23:00 +5°C° 0 mm 1 mps 597 mmHg 86%

    25 April, Wednesday

    Time Temperature Precipitation Wind Pressure Humidity
    00:00 +5°C° 0 mm 1 mps 597 mmHg 86%
    01:00 +4°C° 0 mm 2 mps 597 mmHg 86%
    02:00 +4°C° 0 mm 2 mps 596 mmHg 86%
    03:00 +3°C° 0 mm 2 mps 596 mmHg 87%
    04:00 +3°C° 0 mm 2 mps 596 mmHg 87%
    05:00 +4°C° 0 mm 2 mps 596 mmHg 83%
    06:00 +7°C° 0 mm 1 mps 597 mmHg 80%
    07:00 +8°C° 0 mm 1 mps 598 mmHg 76%
    08:00 +10°C° 0 mm 1 mps 598 mmHg 67%
    09:00 +12°C° 0 mm 1 mps 599 mmHg 58%
    10:00 +14°C° 0 mm 1 mps 600 mmHg 49%
    11:00 +15°C° 0.2 mm 1 mps 600 mmHg 46%
    12:00 +16°C° 0.2 mm 1 mps 600 mmHg 43%
    13:00 +16°C° 0.2 mm 2 mps 600 mmHg 41%
    14:00 +16°C° 0.4 mm 2 mps 600 mmHg 42%
    15:00 +15°C° 0.4 mm 2 mps 599 mmHg 43%
    16:00 +15°C° 0.4 mm 1 mps 599 mmHg 45%
    17:00 +13°C° 0.8 mm 1 mps 598 mmHg 57%
    18:00 +11°C° 0.8 mm 1 mps 597 mmHg 69%
    19:00 +9°C° 0.8 mm 1 mps 597 mmHg 81%
    20:00 +9°C° 0.6 mm 1 mps 597 mmHg 85%
    21:00 +8°C° 0.6 mm 1 mps 597 mmHg 88%
    22:00 +6°C° 0.6 mm 0 mps 597 mmHg 91%
    23:00 +5°C° 0.1 mm 0 mps 596 mmHg 93%

    26 April, Thursday

    Time Temperature Precipitation Wind Pressure Humidity
    00:00 +5°C° 0.1 mm 0 mps 596 mmHg 94%
    01:00 +5°C° 0.1 mm 0 mps 596 mmHg 96%
    02:00 +5°C° 0.2 mm 0 mps 596 mmHg 96%
    03:00 +5°C° 0.2 mm 0 mps 595 mmHg 96%
    04:00 +5°C° 0.2 mm 0 mps 595 mmHg 96%
    05:00 +5°C° 0.9 mm 0 mps 595 mmHg 95%
    06:00 +5°C° 0.9 mm 0 mps 595 mmHg 94%
    07:00 +7°C° 0.9 mm 1 mps 595 mmHg 93%
    08:00 +7°C° 2.2 mm 1 mps 595 mmHg 92%
    09:00 +7°C° 2.2 mm 1 mps 595 mmHg 90%
    10:00 +7°C° 2.2 mm 1 mps 595 mmHg 88%
    11:00 +7°C° 3.3 mm 1 mps 595 mmHg 90%
    12:00 +5°C° 3.3 mm 2 mps 595 mmHg 92%
    13:00 +5°C° 3.3 mm 2 mps 594 mmHg 94%
    14:00 +4°C° 3.2 mm 2 mps 594 mmHg 95%
    15:00 +3°C° 3.2 mm 2 mps 594 mmHg 95%
    16:00 +3°C° 3.2 mm 2 mps 593 mmHg 96%
    17:00 +2°C° 2.4 mm 2 mps 593 mmHg 96%
    18:00 +1°C° 2.4 mm 2 mps 593 mmHg 97%
    19:00 +1°C° 2.4 mm 2 mps 593 mmHg 97%
    20:00 -1°C° 2 mm 2 mps 593 mmHg 97%
    21:00 -1°C° 2 mm 2 mps 593 mmHg 97%
    22:00 -1°C° 2 mm 2 mps 593 mmHg 97%
    23:00 -2°C° 2 mm 2 mps 593 mmHg 97%

    27 April, Friday

    Time Temperature Precipitation Wind Pressure Humidity
    00:00 -2°C° 2 mm 2 mps 592 mmHg 97%
    01:00 -2°C° 2 mm 2 mps 592 mmHg 97%
    02:00 -3°C° 1.8 mm 2 mps 592 mmHg 97%
    03:00 -3°C° 1.8 mm 2 mps 592 mmHg 97%
    04:00 -3°C° 1.8 mm 2 mps 592 mmHg 97%
    05:00 -3°C° 0.8 mm 2 mps 592 mmHg 97%
    06:00 -3°C° 0.8 mm 2 mps 592 mmHg 96%
    07:00 -3°C° 0.8 mm 2 mps 592 mmHg 96%
    08:00 -2°C° 0.2 mm 2 mps 593 mmHg 95%
    09:00 -2°C° 0.2 mm 2 mps 593 mmHg 93%
    10:00 -1°C° 0.2 mm 2 mps 593 mmHg 92%
    11:00 -1°C° 0.1 mm 2 mps 593 mmHg 90%
    12:00 +1°C° 0.1 mm 2 mps 593 mmHg 88%
    13:00 +2°C° 0.1 mm 2 mps 593 mmHg 86%
    14:00 +3°C° 0 mm 1 mps 593 mmHg 85%
    15:00 +3°C° 0 mm 1 mps 593 mmHg 84%
    16:00 +3°C° 0 mm 1 mps 593 mmHg 83%
    17:00 +2°C° 0 mm 1 mps 592 mmHg 86%
    18:00 +2°C° 0 mm 1 mps 592 mmHg 89%
    19:00 +1°C° 0 mm 1 mps 592 mmHg 92%
    20:00 0°C° 0 mm 1 mps 592 mmHg 92%
    21:00 -1°C° 0 mm 1 mps 592 mmHg 93%
    22:00 -2°C° 0 mm 1 mps 591 mmHg 94%
    23:00 -2°C° 0.1 mm 1 mps 591 mmHg 94%
    Show more